Weather in Ratta

Russia / Yamalo-Nenets Autonomous Okrug     63°34′43″N   83°51′43″E
temp.,
°C
wind,
m/s
gust,
m/s
humid.,
%
clouds,
%
prec.,
mm/h
press.,
hPa
HPBL,
m
27 february, sat
sat2723:00−35w239991 0.0 102448
02:00−34wsw249894 0.0 1024100
05:00−32wsw239897 0.1 1026110
08:00−30sw2398100 0.1 1024154
11:00−27wsw2394100 0.2 1025336
14:00−25wsw1290100 0.1 1024473
17:00−27s0198100 0.1 102519
20:00−28se119999 0.1 102519
28 february, sun
sun2823:00−30se1110098 0.1 102619
02:00−31e1110092 0.0 102619
05:00−33e1110093 0.0 102819
08:00−31e119986 0.0 102819
11:00−25ese119273 0.0 1029283
14:00−23se0189100 0.0 1029460
17:00−28e1198100 0.0 102919
20:00−30ese1210067 0.0 102919
1 march, mon
mon123:00−31se1110055 0.0 102919
02:00−32se12990 0.0 102919
05:00−33ese12990 0.0 102819
08:00−31se22970 0.0 102867
11:00−24ese129112 0.0 1027289
14:00−22ese239290 0.0 1026382
17:00−27ese239778 0.0 102624
20:00−29se239625 0.0 102626
2 march, tue
tue223:00−28sse229563 0.0 102536
02:00−29se2295100 0.0 102519
05:00−30sse2296100 0.0 102520
08:00−28sse259593 0.0 1025128
11:00−23sse249366 0.0 1026272
14:00−20se248915 0.0 1025393
17:00−23se239424 0.0 102541
20:00−26sse369351 0.0 1025127
3 march, wed
wed323:00−27sse369349 0.0 1025117
02:00−28sse359348 0.0 1025100
05:00−28se359225 0.0 1025107
08:00−26sse388766 0.0 1025244
11:00−21sse488871 0.0 1025333
14:00−18sse488687 0.0 1025440
17:00−20se499270 0.0 1025268
20:00−21sse4129197 0.0 1025336